period_start,C,m1,H,J0,J1,J2,J3,J4,J5,JA,JB,JC,JD,JJ,JK,JN,#
2015-04-08 00:00:17,0.10,2.98,0.00,24.31,27.11,29.88,4.81,27.81,1031.75,2031.05,2322.15,2581.95,2760.65,350.02,351.61,22.39,0000 0000 0000 0000 000000
2015-04-08 00:05:18,0.11,2.99,0.00,23.81,27.13,30.13,4.85,27.93,1031.75,2031.03,2321.17,2581.11,2759.85,350.23,351.76,22.41,0000 0000 0000 0000 000000
2015-04-08 00:10:20,0.11,2.99,0.00,23.27,27.15,30.11,4.89,27.88,1031.76,2031.01,2320.29,2580.67,2759.07,349.83,352.34,22.44,0000 0000 0000 0000 000000
2015-04-08 00:15:21,0.09,2.99,0.00,23.56,27.15,29.68,4.89,27.61,1031.76,2031.02,2319.37,2580.01,2758.56,350.37,352.63,22.47,0000 0000 0000 0000 000000
2015-04-08 00:20:23,0.03,3.00,0.00,23.75,27.15,29.58,4.87,27.73,1031.76,2031.04,2318.98,2579.83,2758.01,350.16,352.12,22.50,0000 0000 0000 0000 000000
2015-04-08 00:25:24,0.10,3.00,0.00,23.48,27.15,29.70,4.80,27.85,1031.76,2031.03,2318.20,2579.12,2757.79,349.88,352.16,22.53,0000 0000 0000 0000 000000
2015-04-08 00:30:25,0.08,3.00,0.00,23.49,27.13,29.74,4.82,27.73,1031.76,2031.04,2317.49,2578.85,2757.04,349.74,352.08,22.56,0000 0000 0000 0000 000000
2015-04-08 00:35:27,0.07,3.00,0.00,23.63,27.12,29.83,4.82,27.88,1031.77,2031.06,2316.96,2578.11,2756.78,349.85,352.02,22.59,0000 0000 0000 0000 000000
2015-04-08 00:40:28,0.05,3.01,0.00,23.75,27.12,29.85,4.78,27.89,1031.78,2031.03,2316.23,2577.99,2756.05,349.90,351.99,22.62,0000 0000 0000 0000 000000
2015-04-08 00:45:29,0.08,3.01,0.00,24.00,27.13,29.93,4.74,27.76,1031.80,2031.01,2315.77,2577.36,2755.76,349.39,351.12,22.65,0000 0000 0000 0000 000000
2015-04-08 00:50:31,0.05,3.01,0.00,24.40,27.15,29.94,4.78,27.68,1031.82,2031.00,2315.06,2577.00,2755.07,350.16,351.23,22.68,0000 0000 0000 0000 000000
2015-04-08 00:55:32,0.10,3.01,0.00,23.94,27.17,30.06,4.82,28.09,1031.82,2031.00,2314.50,2576.51,2754.67,349.48,351.18,22.71,0000 0000 0000 0000 000000
2015-04-08 01:00:33,0.03,3.01,0.00,23.37,27.17,30.08,4.90,28.14,1031.82,2031.00,2313.97,2576.01,2754.04,349.73,352.02,22.74,0000 0000 0000 0000 000000
2015-04-08 01:05:35,0.04,3.01,0.00,23.40,27.17,29.82,4.89,27.94,1032.02,2031.00,2313.22,2575.97,2753.98,349.86,352.47,22.77,0000 0000 0000 0000 000000
2015-04-08 01:10:36,0.06,3.02,0.00,23.64,27.15,29.68,4.78,27.77,1032.05,2031.00,2312.98,2575.61,2753.56,349.56,351.76,22.80,0000 0000 0000 0000 000000
2015-04-08 01:15:37,0.07,3.02,0.00,23.51,27.15,29.65,4.86,27.77,1032.13,2031.01,2312.20,2575.04,2753.04,350.03,352.48,22.83,0000 0000 0000 0000 000000
2015-04-08 01:20:39,0.01,3.02,0.00,23.54,27.13,29.76,4.83,28.02,1032.10,2031.02,2311.99,2574.99,2752.93,349.63,352.27,22.85,0000 0000 0000 0000 000000
2015-04-08 01:25:40,0.12,3.02,0.00,23.66,27.12,29.82,4.80,27.95,1032.11,2031.01,2311.29,2574.44,2752.15,350.32,352.36,22.88,0000 0000 0000 0000 000000
2015-04-08 01:30:41,0.01,3.02,0.00,23.81,27.12,29.88,4.85,27.96,1032.11,2031.01,2310.91,2574.01,2751.99,350.43,352.30,22.91,0000 0000 0000 0000 000000
2015-04-08 01:35:42,0.10,3.03,0.00,23.92,27.12,29.92,4.84,27.87,1032.12,2031.00,2310.12,2573.74,2751.29,349.39,351.29,22.94,0000 0000 0000 0000 000000
2015-04-08 01:40:43,0.05,3.03,0.00,24.33,27.13,29.93,4.79,27.63,1032.21,2031.01,2309.85,2573.06,2751.00,349.59,350.93,22.97,0000 0000 0000 0000 000000
2015-04-08 01:45:44,0.07,3.03,0.00,24.18,27.15,30.04,4.83,27.76,1032.24,2031.00,2309.04,2572.90,2750.51,350.23,351.90,23.00,0000 0000 0000 0000 000000
2015-04-08 01:50:45,0.10,3.03,0.00,23.57,27.15,30.16,4.84,27.75,1032.24,2031.00,2308.35,2572.18,2750.01,349.92,352.42,23.03,0000 0000 0000 0000 000000
2015-04-08 01:55:47,0.02,3.03,0.00,23.33,27.15,29.99,4.86,27.57,1032.24,2031.00,2307.72,2572.00,2749.97,350.28,353.01,23.06,0000 0000 0000 0000 000000
2015-04-08 02:00:48,0.06,3.04,0.00,23.60,27.15,29.72,4.87,27.80,1032.24,2031.00,2307.03,2571.88,2749.51,350.12,352.45,23.09,0000 0000 0000 0000 000000
2015-04-08 02:05:49,0.11,3.04,0.00,23.51,27.14,29.71,4.87,27.72,1032.24,2031.04,2306.35,2571.09,2748.99,349.81,352.25,23.12,0000 0000 0000 0000 000000
2015-04-08 02:10:51,0.14,3.04,0.00,23.50,27.12,29.69,4.77,27.71,1032.24,2031.03,2305.24,2570.41,2748.17,349.75,352.19,23.15,0000 0000 0000 0000 000000
2015-04-08 02:15:52,0.07,3.05,0.00,23.62,27.12,29.78,4.80,27.77,1032.24,2031.04,2304.52,2569.98,2747.31,349.61,351.65,23.18,0000 0000 0000 0000 000000
2015-04-08 02:20:53,0.07,3.05,0.00,23.77,27.10,29.86,4.81,27.81,1032.26,2031.04,2303.89,2569.44,2746.99,350.24,352.08,23.21,0000 0000 0000 0000 000000
2015-04-08 02:25:55,0.08,3.05,0.00,23.98,27.11,29.86,4.77,27.68,1032.29,2031.03,2303.08,2568.95,2746.30,349.77,351.78,23.23,0000 0000 0000 0000 000000
2015-04-08 02:30:56,0.12,3.05,0.00,24.44,27.12,29.90,4.74,27.64,1032.30,2031.03,2302.24,2568.13,2745.66,349.56,350.90,23.26,0000 0000 0000 0000 000000
2015-04-08 02:35:57,0.11,3.06,0.00,24.10,27.14,30.03,4.86,27.66,1032.33,2031.01,2301.33,2567.47,2744.95,350.18,351.88,23.29,0000 0000 0000 0000 000000
2015-04-08 02:40:58,0.08,3.06,0.00,23.53,27.15,30.13,4.86,27.71,1032.46,2031.01,2300.58,2567.00,2744.14,349.96,352.31,23.32,0000 0000 0000 0000 000000
2015-04-08 02:45:59,0.07,3.06,0.00,23.44,27.15,29.88,4.84,27.53,1032.59,2031.02,2299.90,2566.57,2743.99,349.85,352.29,23.35,0000 0000 0000 0000 000000
2015-04-08 02:51:00,0.09,3.06,0.00,23.71,27.13,29.66,4.93,27.66,1032.45,2031.06,2299.08,2566.02,2743.46,349.89,352.18,23.38,0000 0000 0000 0000 000000
2015-04-08 02:56:01,0.05,3.07,0.00,23.48,27.12,29.71,4.89,27.81,1032.56,2031.12,2298.69,2565.91,2743.00,350.52,352.89,23.41,0000 0000 0000 0000 000000
2015-04-08 03:01:03,0.12,3.07,0.00,23.58,27.11,29.75,4.87,27.50,1032.50,2031.24,2298.02,2565.16,2742.56,349.91,352.22,23.44,0000 0000 0000 0000 000000
2015-04-08 03:06:04,0.05,3.07,0.00,23.71,27.10,29.78,4.81,27.53,1032.52,2031.38,2297.67,2565.00,2742.01,349.58,352.06,23.47,0000 0000 0000 0000 000000
2015-04-08 03:11:06,0.06,3.07,0.00,23.83,27.10,29.81,4.87,27.81,1032.31,2031.19,2296.98,2564.59,2741.64,350.02,351.97,23.50,0000 0000 0000 0000 000000
2015-04-08 03:16:07,0.05,3.08,0.00,24.21,27.12,29.85,4.86,27.62,1032.34,2031.11,2296.14,2564.01,2741.02,350.59,352.12,23.53,0000 0000 0000 0000 000000
2015-04-08 03:21:08,0.11,3.08,0.00,24.55,27.13,29.84,4.83,27.69,1032.59,2031.02,2295.59,2563.38,2740.31,349.83,351.41,23.56,0000 0000 0000 0000 000000
2015-04-08 03:26:10,0.04,3.08,0.00,24.02,27.15,30.05,4.89,27.48,1032.71,2031.03,2294.79,2562.98,2739.92,350.18,352.08,23.59,0000 0000 0000 0000 000000
2015-04-08 03:31:11,0.12,3.08,0.00,23.56,27.16,30.15,4.86,27.57,1032.72,2031.01,2293.99,2562.26,2739.12,350.30,352.90,23.62,0000 0000 0000 0000 000000
2015-04-08 03:36:12,0.04,3.09,0.00,23.71,27.16,29.91,4.83,27.57,1032.72,2031.02,2293.22,2562.00,2738.97,349.77,352.12,23.64,0000 0000 0000 0000 000000
2015-04-08 03:41:13,0.05,3.09,0.00,23.84,27.15,29.81,4.79,27.62,1032.70,2031.02,2292.92,2561.82,2738.36,349.30,351.75,23.67,0000 0000 0000 0000 000000
2015-04-08 03:46:14,0.09,3.09,0.00,23.68,27.15,29.80,4.89,27.73,1032.73,2031.01,2292.12,2561.07,2738.00,350.58,352.78,23.70,0000 0000 0000 0000 000000
2015-04-08 03:51:15,0.05,3.09,0.00,23.82,27.15,29.86,4.82,27.68,1032.73,2031.04,2291.82,2560.97,2737.54,350.29,352.52,23.73,0000 0000 0000 0000 000000
2015-04-08 03:56:17,0.10,3.09,0.00,23.99,27.15,29.87,4.88,27.59,1032.73,2031.04,2291.06,2560.29,2737.01,349.74,351.77,23.76,0000 0000 0000 0000 000000
2015-04-08 04:01:18,0.07,3.10,0.00,24.56,27.17,29.91,4.81,27.58,1032.73,2031.02,2290.46,2559.98,2736.45,349.73,350.92,23.79,0000 0000 0000 0000 000000
2015-04-08 04:06:19,0.13,3.10,0.00,24.39,27.18,29.99,4.83,27.55,1032.73,2031.00,2289.57,2559.20,2735.70,349.82,351.52,23.82,0000 0000 0000 0000 000000
2015-04-08 04:11:20,0.16,3.10,0.00,23.79,27.20,30.14,4.80,27.52,1032.73,2031.01,2288.12,2558.40,2734.57,350.47,352.69,23.85,0000 0000 0000 0000 000000
2015-04-08 04:16:21,0.36,3.11,0.00,23.63,27.20,29.94,4.82,27.71,1032.75,2031.00,2285.51,2556.33,2732.42,349.16,351.66,23.88,0000 0000 0000 0000 000000
2015-04-08 04:21:23,0.36,3.12,0.00,23.94,27.20,29.73,4.78,27.60,1032.75,2031.01,2282.89,2554.18,2730.16,349.61,351.76,23.91,0000 0000 0000 0000 000000
2015-04-08 04:26:24,0.12,3.13,0.00,23.77,27.18,29.78,4.85,27.77,1032.75,2031.01,2281.23,2553.03,2729.00,349.86,352.10,23.94,0000 0000 0000 0000 000000
2015-04-08 04:31:25,0.09,3.13,0.00,23.82,27.17,29.80,4.90,27.88,1032.85,2031.03,2280.85,2552.65,2728.39,350.38,352.49,23.97,0000 0000 0000 0000 000000
2015-04-08 04:36:26,0.05,3.13,0.00,24.29,27.17,29.87,4.86,27.85,1033.03,2031.02,2280.08,2552.02,2727.97,350.65,352.42,24.00,0000 0000 0000 0000 000000
2015-04-08 04:41:28,0.11,3.14,0.00,24.60,27.19,29.93,4.79,27.52,1033.10,2031.00,2279.46,2551.62,2727.29,349.67,351.23,24.03,0000 0000 0000 0000 000000
2015-04-08 04:46:29,0.11,3.14,0.00,24.05,27.20,30.02,4.83,27.38,1033.08,2031.00,2278.44,2550.94,2726.54,350.06,352.19,24.05,0000 0000 0000 0000 000000
2015-04-08 04:51:30,0.10,3.14,0.00,23.65,27.20,29.99,4.88,27.48,1033.07,2031.00,2277.52,2550.11,2725.99,350.74,353.05,24.08,0000 0000 0000 0000 000000
2015-04-08 04:56:32,0.07,3.15,0.00,23.77,27.19,29.66,4.87,27.65,1032.98,2031.00,2276.84,2549.89,2725.32,350.32,352.86,24.11,0000 0000 0000 0000 000000
2015-04-08 05:01:33,0.09,3.15,0.00,23.92,27.17,29.63,4.78,27.62,1032.95,2031.01,2276.07,2549.14,2724.98,349.24,351.50,24.14,0000 0000 0000 0000 000000
2015-04-08 05:06:35,0.03,3.15,0.00,23.74,27.17,29.72,4.92,27.64,1033.03,2031.01,2275.87,2549.00,2724.32,350.39,352.55,24.17,0000 0000 0000 0000 000000
2015-04-08 05:11:36,0.07,3.15,0.00,23.91,27.15,29.83,4.87,27.67,1033.09,2031.01,2275.13,2548.68,2724.01,350.15,352.42,24.20,0000 0000 0000 0000 000000
2015-04-08 05:16:37,0.08,3.15,0.00,24.25,27.15,29.87,4.76,27.54,1033.09,2031.01,2274.71,2548.04,2723.48,349.41,351.19,24.23,0000 0000 0000 0000 000000
2015-04-08 05:21:39,0.04,3.16,0.00,24.59,27.17,29.87,4.83,27.48,1033.08,2031.00,2274.02,2547.84,2723.00,350.20,351.55,24.26,0000 0000 0000 0000 000000
2015-04-08 05:26:40,0.11,3.16,0.00,24.18,27.17,30.00,4.74,27.58,1033.17,2031.00,2273.44,2547.10,2722.60,349.36,351.22,24.29,0000 0000 0000 0000 000000
2015-04-08 05:31:42,0.02,3.16,0.00,23.74,27.17,30.05,4.84,27.61,1033.19,2031.00,2272.95,2546.99,2722.02,349.88,352.23,24.32,0000 0000 0000 0000 000000
2015-04-08 05:36:43,0.07,3.16,0.00,23.72,27.17,29.82,4.80,27.66,1033.21,2031.02,2272.12,2546.73,2721.95,349.62,352.40,24.35,0000 0000 0000 0000 000000
2015-04-08 05:41:44,0.10,3.16,0.00,23.96,27.16,29.74,4.81,27.61,1033.20,2031.01,2271.60,2546.00,2721.16,349.81,352.19,24.38,0000 0000 0000 0000 000000
2015-04-08 05:46:45,0.15,3.17,0.00,23.75,27.15,29.72,4.87,27.76,1033.20,2031.00,2270.27,2545.14,2720.22,350.10,352.49,24.41,0000 0000 0000 0000 000000
2015-04-08 05:51:46,0.12,3.17,0.00,23.85,27.15,29.82,4.89,27.83,1033.19,2031.01,2269.39,2544.61,2719.66,350.26,352.51,24.43,0000 0000 0000 0000 000000
2015-04-08 05:56:47,0.05,3.18,0.00,24.50,27.15,29.86,4.85,27.44,1033.22,2031.01,2268.72,2544.02,2719.03,349.85,351.58,24.46,0000 0000 0000 0000 000000
2015-04-08 06:01:48,0.11,3.18,0.00,24.39,27.15,29.92,4.82,27.48,1033.22,2031.01,2267.93,2543.54,2718.37,350.04,351.60,24.49,0000 0000 0000 0000 000000
2015-04-08 06:06:50,0.07,3.18,0.00,23.85,27.15,30.01,4.87,27.60,1033.22,2031.00,2267.07,2543.00,2717.87,349.68,351.91,24.52,0000 0000 0000 0000 000000
2015-04-08 06:11:51,0.10,3.18,0.00,23.64,27.15,29.89,4.84,27.46,1033.24,2031.00,2266.31,2542.60,2717.18,349.81,352.44,24.55,0000 0000 0000 0000 000000
2015-04-08 06:16:52,0.03,3.19,0.00,23.91,27.14,29.72,4.87,27.43,1033.23,2031.01,2265.98,2542.02,2717.00,350.29,352.81,24.58,0000 0000 0000 0000 000000
2015-04-08 06:21:53,0.07,3.19,0.00,23.75,27.12,29.67,4.79,27.64,1033.25,2031.02,2265.37,2541.99,2716.63,350.30,352.93,24.61,0000 0000 0000 0000 000000
2015-04-08 06:26:55,0.11,3.19,0.00,23.78,27.12,29.74,4.91,27.67,1033.26,2031.05,2264.66,2541.34,2716.02,350.59,353.10,24.64,0000 0000 0000 0000 000000
2015-04-08 06:31:56,0.13,3.19,0.00,24.27,27.12,29.79,4.78,27.53,1033.29,2031.06,2263.68,2540.70,2715.27,349.22,351.10,24.67,0000 0000 0000 0000 000000
2015-04-08 06:36:58,0.05,3.20,0.00,24.48,27.12,29.86,4.84,27.55,1033.39,2031.03,2262.95,2540.03,2714.77,350.17,351.83,24.70,0000 0000 0000 0000 000000
2015-04-08 06:41:59,0.09,3.20,0.00,24.00,27.12,29.97,4.90,27.44,1033.46,2031.06,2262.09,2539.79,2714.05,350.66,352.41,24.73,0000 0000 0000 0000 000000
2015-04-08 06:47:00,0.10,3.20,0.00,23.72,27.12,29.95,4.88,27.45,1033.55,2031.03,2261.21,2539.04,2713.64,349.70,352.44,24.76,0000 0000 0000 0000 000000
2015-04-08 06:52:01,0.04,3.20,0.00,23.94,27.10,29.76,4.83,27.47,1033.60,2031.11,2260.95,2539.00,2713.04,349.81,352.10,24.79,0000 0000 0000 0000 000000
2015-04-08 06:57:02,0.11,3.21,0.00,23.95,27.10,29.69,4.86,27.57,1033.67,2031.22,2260.20,2538.59,2712.99,349.90,352.38,24.82,0000 0000 0000 0000 000000
2015-04-08 07:02:04,0.04,3.21,0.00,23.77,27.08,29.71,4.83,27.52,1033.67,2031.14,2259.83,2538.02,2712.37,349.87,352.55,24.84,0000 0000 0000 0000 000000
2015-04-08 07:07:05,0.07,3.21,0.00,24.11,27.07,29.75,4.86,27.58,1033.69,2031.20,2259.07,2537.88,2712.00,349.94,352.04,24.87,0000 0000 0000 0000 000000
2015-04-08 07:12:06,0.07,3.21,0.00,24.65,27.08,29.80,4.78,27.55,1033.71,2031.23,2258.82,2537.17,2711.69,349.66,351.33,24.90,0000 0000 0000 0000 000000
2015-04-08 07:17:08,0.04,3.21,0.00,24.20,27.10,29.92,4.79,27.49,1033.71,2031.11,2258.05,2537.00,2711.03,349.37,351.60,24.93,0000 0000 0000 0000 000000
2015-04-08 07:22:09,0.09,3.21,0.00,23.77,27.09,30.01,4.81,27.44,1033.71,2031.18,2257.51,2536.71,2710.90,349.79,352.36,24.96,0000 0000 0000 0000 000000
2015-04-08 07:27:10,0.11,3.22,0.00,23.79,27.07,29.84,4.82,27.60,1033.71,2031.27,2256.86,2536.05,2710.14,350.03,352.79,24.99,0000 0000 0000 0000 000000
2015-04-08 07:32:11,0.15,3.22,0.00,23.93,27.07,29.59,4.81,27.64,1033.71,2031.55,2255.96,2535.53,2709.57,349.87,352.29,25.02,0000 0000 0000 0000 000000
2015-04-08 07:37:13,0.15,3.23,0.00,23.60,27.05,29.62,4.80,27.68,1033.71,2031.70,2254.92,2534.84,2708.78,349.42,352.28,25.05,0000 0000 0000 0000 000000
2015-04-08 07:42:14,0.12,3.23,0.00,23.81,27.05,29.73,4.84,27.60,1033.72,2031.78,2253.93,2534.04,2708.00,349.59,352.21,25.08,0000 0000 0000 0000 000000
2015-04-08 07:47:15,0.10,3.23,0.00,24.54,27.05,29.76,4.76,27.39,1033.72,2031.54,2253.06,2533.34,2707.17,349.74,351.63,25.11,0000 0000 0000 0000 000000
2015-04-08 07:52:16,0.05,3.24,0.00,24.36,27.05,29.81,4.76,27.46,1033.76,2031.49,2252.37,2532.95,2706.70,349.66,351.54,25.14,0000 0000 0000 0000 000000
2015-04-08 07:57:18,0.09,3.24,0.00,23.84,27.07,29.95,4.85,27.39,1033.76,2031.36,2251.43,2532.19,2706.01,349.71,352.44,25.17,0000 0000 0000 0000 000000
2015-04-08 08:02:19,0.10,3.24,0.00,23.69,27.05,29.90,4.80,27.43,1033.75,2031.23,2250.47,2531.79,2705.31,350.48,353.26,25.20,0000 0000 0000 0000 000000
2015-04-08 08:07:21,0.11,3.25,0.00,23.99,27.05,29.72,4.86,27.68,1033.73,2031.46,2249.76,2531.07,2704.96,350.33,352.70,25.23,0000 0000 0000 0000 000000
2015-04-08 08:12:22,0.19,3.25,0.00,23.83,27.04,29.67,4.89,27.67,1033.80,2031.65,2248.51,2530.55,2704.09,350.31,352.91,25.25,0000 0000 0000 0000 000000
2015-04-08 08:17:24,0.16,3.25,0.00,23.88,27.02,29.75,4.88,27.74,1034.03,2031.79,2247.03,2529.71,2703.18,350.89,353.31,25.28,0000 0000 0000 0000 000000
2015-04-08 08:22:25,0.11,3.26,0.00,24.54,27.02,29.75,4.86,27.57,1034.19,2031.61,2245.70,2528.95,2702.29,350.43,352.13,25.31,0000 0000 0000 0000 000000
2015-04-08 08:27:26,0.09,3.26,0.00,24.35,27.04,29.80,4.81,27.57,1034.19,2031.36,2244.27,2528.07,2701.34,349.87,351.96,25.34,0000 0000 0000 0000 000000
2015-04-08 08:32:27,0.21,3.27,0.00,23.84,27.05,29.92,4.86,27.54,1034.19,2031.47,2243.06,2527.33,2700.76,349.86,352.60,25.37,0000 0000 0000 0000 000000
2015-04-08 08:37:28,0.07,3.27,0.00,23.70,27.03,29.85,4.85,27.68,1034.20,2031.62,2242.15,2526.96,2700.04,350.16,352.76,25.40,0000 0000 0000 0000 000000
2015-04-08 08:42:30,0.15,3.27,0.00,23.97,27.02,29.69,4.85,27.68,1034.20,2031.67,2241.31,2526.15,2699.50,350.33,352.81,25.43,0000 0000 0000 0000 000000
2015-04-08 08:47:31,0.35,3.28,0.00,23.75,27.01,29.66,4.83,27.71,1034.20,2031.82,2239.07,2524.63,2697.77,350.27,353.08,25.46,0000 0000 0000 0000 000000
2015-04-08 08:52:32,0.19,3.29,0.00,23.69,27.00,29.71,4.82,27.72,1034.20,2031.96,2237.29,2523.36,2696.46,349.75,352.51,25.49,0000 0000 0000 0000 000000
2015-04-08 08:57:34,0.06,3.29,0.00,24.22,27.00,29.72,4.83,27.56,1034.21,2031.97,2236.38,2522.95,2695.95,349.88,352.15,25.52,0000 0000 0000 0000 000000
2015-04-08 09:02:35,0.10,3.30,0.00,24.59,27.01,29.72,4.80,27.53,1034.24,2031.97,2235.83,2522.18,2695.19,349.90,351.74,25.55,0000 0000 0000 0000 000000
2015-04-08 09:07:36,0.08,3.30,0.00,24.09,27.02,29.82,4.86,27.88,1034.32,2031.93,2234.94,2521.81,2694.66,350.15,352.50,25.58,0000 0000 0000 0000 000000
2015-04-08 09:12:38,0.22,3.30,0.00,23.74,27.02,29.91,4.83,27.62,1034.45,2031.93,2233.58,2520.74,2693.60,349.98,353.00,25.61,0000 0000 0000 0000 000000
2015-04-08 09:17:39,0.45,3.31,0.00,23.76,27.02,29.74,4.87,27.72,1034.55,2031.95,2230.53,2518.40,2691.18,350.00,352.86,25.64,0000 0000 0000 0000 000000
2015-04-08 09:22:40,0.53,3.33,0.00,23.97,27.00,29.63,4.93,27.84,1034.62,2031.97,2226.46,2515.19,2687.80,350.27,353.01,25.66,0000 0000 0000 0000 000000
2015-04-08 09:27:42,0.28,3.34,0.00,23.74,27.00,29.69,4.83,27.82,1034.66,2031.98,2223.99,2513.31,2685.85,349.54,352.65,25.69,0000 0000 0000 0000 000000
2015-04-08 09:32:43,0.25,3.35,0.00,24.10,27.00,29.75,4.82,27.91,1034.64,2031.97,2222.05,2511.82,2684.26,350.03,352.55,25.72,0000 0000 0000 0000 000000
2015-04-08 09:37:44,0.34,3.36,0.00,24.52,27.00,29.75,4.78,27.81,1034.64,2031.94,2219.53,2509.96,2682.35,350.24,352.24,25.75,0000 0000 0000 0000 000000
2015-04-08 09:42:45,0.25,3.36,0.00,24.11,27.00,29.84,4.78,27.83,1034.68,2031.90,2217.21,2508.35,2680.59,349.49,352.02,25.78,0000 0000 0000 0000 000000
2015-04-08 09:47:46,0.19,3.37,0.00,23.72,27.00,29.89,4.86,27.71,1034.67,2031.94,2215.56,2507.17,2679.46,350.18,353.06,25.81,0000 0000 0000 0000 000000
2015-04-08 09:52:47,0.13,3.37,0.00,23.70,27.00,29.68,4.94,27.88,1034.67,2031.97,2214.47,2506.51,2678.74,350.37,353.29,25.84,0000 0000 0000 0000 000000
2015-04-08 09:57:49,0.09,3.38,0.00,23.94,26.98,29.55,4.79,27.83,1034.67,2031.97,2213.51,2505.88,2677.93,349.88,352.38,25.87,0000 0000 0000 0000 000000
2015-04-08 10:02:50,0.28,3.38,0.00,23.86,26.97,29.59,4.81,27.77,1034.67,2031.98,2211.92,2504.53,2676.53,350.64,353.33,25.90,0000 0000 0000 0000 000000
2015-04-08 10:07:51,0.54,3.40,0.00,24.25,26.96,29.65,4.82,27.73,1034.68,2031.97,2208.19,2501.70,2673.42,350.01,352.33,25.93,0000 0000 0000 0000 000000
2015-04-08 10:12:52,0.48,3.41,0.00,24.31,26.95,29.69,4.84,27.86,1034.68,2031.97,2204.50,2498.85,2670.18,349.94,352.18,25.96,0000 0000 0000 0000 000000
2015-04-08 10:17:54,0.18,3.42,0.00,23.77,26.95,29.72,4.79,27.68,1034.68,2031.97,2202.53,2497.56,2668.87,349.97,352.92,25.99,0000 0000 0000 0000 000000
2015-04-08 10:22:55,0.10,3.43,0.00,23.56,26.94,29.58,4.84,27.87,1034.68,2031.97,2201.43,2496.95,2668.05,349.89,353.19,26.02,0000 0000 0000 0000 000000
2015-04-08 10:27:56,0.21,3.43,0.00,23.85,26.92,29.42,4.85,27.82,1034.68,2031.99,2200.07,2495.90,2666.98,349.52,352.36,26.05,0000 0000 0000 0000 000000
2015-04-08 10:32:58,0.22,3.44,0.00,23.69,26.90,29.45,4.74,27.83,1034.68,2031.99,2198.22,2494.72,2665.58,349.34,352.26,26.07,0000 0000 0000 0000 000000
2015-04-08 10:37:59,0.19,3.44,0.00,23.55,26.89,29.49,4.81,27.99,1034.68,2031.99,2196.64,2493.68,2664.46,349.73,352.86,26.10,0000 0000 0000 0000 000000
2015-04-08 10:43:01,0.26,3.45,0.00,23.92,26.87,29.54,4.86,28.21,1034.70,2031.99,2194.81,2492.35,2663.14,350.19,353.00,26.13,0000 0000 0000 0000 000000
2015-04-08 10:48:02,0.49,3.46,0.00,24.47,26.87,29.57,4.80,27.79,1034.74,2031.99,2191.43,2489.76,2660.35,349.94,352.04,26.16,0000 0000 0000 0000 000000
2015-04-08 10:53:03,0.69,3.48,0.00,24.09,26.89,29.70,4.79,28.02,1034.77,2031.99,2186.66,2486.22,2656.31,349.88,352.58,26.19,0000 0000 0000 0000 000000
2015-04-08 10:58:05,0.68,3.50,0.00,23.60,26.90,29.80,4.77,28.02,1034.78,2031.98,2181.36,2482.39,2651.83,349.74,352.92,26.22,0000 0000 0000 0000 000000
2015-04-08 11:03:06,0.33,3.52,0.00,23.58,26.89,29.66,4.84,28.12,1034.87,2031.98,2177.83,2480.05,2649.10,349.93,353.17,26.25,0000 0000 0000 0000 000000
2015-04-08 11:08:07,0.11,3.52,0.00,23.84,26.87,29.57,4.77,27.94,1034.75,2031.99,2176.95,2479.12,2648.09,349.63,353.11,26.28,0000 0000 0000 0000 000000
2015-04-08 11:13:08,0.19,3.53,0.00,23.51,26.87,29.48,4.86,28.13,1034.87,2031.99,2175.67,2478.39,2647.31,350.02,353.34,26.31,0000 0000 0000 0000 000000
2015-04-08 11:18:10,0.02,3.53,0.00,23.60,26.86,29.62,4.84,28.02,1034.89,2031.99,2175.01,2478.00,2646.99,349.93,353.30,26.34,0000 0000 0000 0000 000000
2015-04-08 11:23:11,0.09,3.53,0.00,23.71,26.86,29.63,4.82,28.03,1034.86,2031.99,2174.64,2477.78,2646.39,349.81,352.85,26.37,0000 0000 0000 0000 000000
2015-04-08 11:28:13,0.05,3.53,0.00,23.97,26.87,29.64,4.86,28.09,1034.77,2031.99,2174.02,2477.11,2646.01,350.04,352.52,26.40,0000 0000 0000 0000 000000
2015-04-08 11:33:14,0.06,3.53,0.00,24.44,26.88,29.66,4.84,27.83,1034.80,2031.99,2173.49,2476.97,2645.72,350.37,352.37,26.43,0000 0000 0000 0000 000000
2015-04-08 11:38:15,0.08,3.54,0.00,24.05,26.90,29.78,4.85,27.87,1034.81,2031.98,2172.99,2476.29,2645.03,350.11,352.74,26.46,0000 0000 0000 0000 000000
2015-04-08 11:43:16,0.06,3.54,0.00,23.56,26.92,29.92,4.80,27.93,1035.00,2031.98,2172.27,2476.00,2644.86,349.61,352.93,26.48,0000 0000 0000 0000 000000
2015-04-08 11:48:17,0.13,3.54,0.00,23.42,26.92,29.80,4.92,28.05,1035.03,2031.99,2171.60,2475.53,2644.06,350.04,353.36,26.51,0000 0000 0000 0000 000000
2015-04-08 11:53:19,0.29,3.55,0.00,23.73,26.92,29.69,4.85,28.03,1034.87,2031.99,2169.68,2474.09,2642.70,349.92,353.18,26.54,0000 0000 0000 0000 000000
2015-04-08 11:58:20,0.37,3.56,0.00,23.48,26.90,29.62,4.89,28.05,1034.94,2031.99,2166.89,2471.96,2640.50,350.64,354.03,26.57,0000 0000 0000 0000 000000
2015-04-08 12:03:22,0.26,3.57,0.00,23.51,26.90,29.68,4.80,27.99,1034.79,2031.99,2164.72,2470.36,2638.77,349.56,352.89,26.60,0000 0000 0000 0000 000000
2015-04-08 12:08:23,0.18,3.57,0.00,23.54,26.90,29.72,4.88,28.03,1034.88,2031.99,2163.25,2469.14,2637.52,349.95,353.35,26.63,0000 0000 0000 0000 000000
2015-04-08 12:13:25,0.21,3.58,0.00,24.01,26.90,29.76,4.84,28.01,1034.85,2031.99,2161.74,2467.99,2636.26,350.50,353.19,26.66,0000 0000 0000 0000 000000
2015-04-08 12:18:26,0.19,3.59,0.00,24.20,26.92,29.78,4.75,27.65,1035.06,2031.99,2160.41,2466.86,2634.97,349.74,352.27,26.69,0000 0000 0000 0000 000000
2015-04-08 12:23:27,0.13,3.59,0.00,23.65,26.92,29.82,4.83,27.71,1035.12,2031.95,2159.16,2465.96,2633.92,350.08,353.15,26.72,0000 0000 0000 0000 000000
2015-04-08 12:28:29,0.14,3.60,0.00,23.31,26.92,29.79,4.86,27.99,1035.15,2031.97,2158.16,2465.18,2633.07,350.12,353.93,26.75,0000 0000 0000 0000 000000
2015-04-08 12:33:30,0.08,3.60,0.00,23.54,26.92,29.51,4.87,27.81,1035.17,2031.94,2157.38,2464.91,2632.62,350.40,353.76,26.78,0000 0000 0000 0000 000000
2015-04-08 12:38:31,0.16,3.60,0.00,23.61,26.92,29.55,4.77,27.79,1035.17,2031.98,2156.30,2464.00,2631.69,349.68,352.99,26.81,0000 0000 0000 0000 000000
2015-04-08 12:43:33,0.24,3.61,0.00,23.48,26.90,29.59,4.84,28.01,1035.17,2031.98,2154.54,2462.77,2630.45,349.92,353.30,26.84,0000 0000 0000 0000 000000
2015-04-08 12:48:34,0.19,3.61,0.00,23.58,26.90,29.67,4.84,28.07,1035.17,2031.98,2153.01,2461.66,2629.27,350.19,353.57,26.87,0000 0000 0000 0000 000000
2015-04-08 12:53:35,0.11,3.62,0.00,23.50,26.90,29.68,4.80,28.04,1035.17,2031.99,2151.92,2460.88,2628.44,349.72,353.15,26.90,0000 0000 0000 0000 000000
2015-04-08 12:58:37,0.18,3.62,0.00,24.02,26.90,29.74,4.83,27.97,1035.17,2031.99,2150.74,2459.96,2627.39,350.30,353.07,26.92,0000 0000 0000 0000 000000